| time (UTC) | temp C | wind direction | speed KPH | gust KPH | rain 1hr cm | rain 24hr cm | rain mn cm | humidity % | barometer mb |
| 20260503224541 | 15 | 271 | 4.8 | 11.3 | 0.00 | 0.00 | 0.00 | 38 | 1011.6 |
| 20260503223046 | 15 | 221 | 3.2 | 14.5 | 0.00 | 0.00 | 0.00 | 39 | 1011.7 |
| 20260503221546 | 15 | 267 | 3.2 | 11.3 | 0.00 | 0.00 | 0.00 | 39 | 1011.8 |
| 20260503220047 | 15 | 248 | 3.2 | 12.9 | 0.00 | 0.00 | 0.00 | 37 | 1011.8 |
| 20260503214547 | 15 | 225 | 6.4 | 12.9 | 0.00 | 0.00 | 0.00 | 38 | 1011.8 |
| 20260503213043 | 15 | 225 | 3.2 | 11.3 | 0.00 | 0.00 | 0.00 | 39 | 1011.9 |
| 20260503211554 | 15 | 266 | 3.2 | 16.1 | 0.00 | 0.00 | 0.00 | 39 | 1012.0 |
| 20260503210046 | 15 | 273 | 6.4 | 17.7 | 0.00 | 0.00 | 0.00 | 37 | 1012.0 |
| 20260503204550 | 15 | 263 | 3.2 | 12.9 | 0.00 | 0.00 | 0.00 | 38 | 1012.0 |
| 20260503203055 | 16 | 316 | 4.8 | 14.5 | 0.00 | 0.00 | 0.00 | 37 | 1012.0 |
| 20260503201547 | 16 | 262 | 4.8 | 12.9 | 0.00 | 0.00 | 0.00 | 36 | 1012.1 |
| 20260503200051 | 16 | 238 | 4.8 | 16.1 | 0.00 | 0.00 | 0.00 | 35 | 1012.3 |
| 20260503194549 | 16 | 264 | 3.2 | 16.1 | 0.00 | 0.00 | 0.00 | 37 | 1012.6 |
| 20260503193047 | 16 | 273 | 4.8 | 12.9 | 0.00 | 0.00 | 0.00 | 36 | 1012.9 |
| 20260503191543 | 16 | 251 | 3.2 | 11.3 | 0.00 | 0.00 | 0.00 | 38 | 1013.1 |
| 20260503190045 | 16 | 267 | 6.4 | 14.5 | 0.00 | 0.00 | 0.00 | 35 | 1013.3 |
| 20260503184545 | 16 | 232 | 4.8 | 11.3 | 0.00 | 0.00 | 0.00 | 36 | 1013.4 |
| 20260503183046 | 16 | 234 | 4.8 | 12.9 | 0.00 | 0.00 | 0.00 | 39 | 1013.5 |
| 20260503181546 | 16 | 258 | 6.4 | 16.1 | 0.00 | 0.00 | 0.00 | 36 | 1013.7 |
| 20260503180054 | 16 | 244 | 4.8 | 16.1 | 0.00 | 0.00 | 0.00 | 37 | 1013.8 |
| 20260503174546 | 16 | 262 | 3.2 | 12.9 | 0.00 | 0.00 | 0.00 | 40 | 1014.1 |
| 20260503173047 | 16 | 298 | 3.2 | 14.5 | 0.00 | 0.00 | 0.00 | 39 | 1014.4 |
| 20260503171545 | 16 | 258 | 4.8 | 11.3 | 0.00 | 0.00 | 0.00 | 41 | 1014.6 |
| 20260503081546 | 1 | 0 | 0.0 | 0.0 | 0.00 | 0.15 | 0.00 | 88 | 1016.0 |
| 20260503071551 | 1 | 0 | 0.0 | 0.0 | 0.00 | 0.15 | 0.00 | 86 | 1015.9 |
| 20260503060109 | 2 | 0 | 0.0 | 0.0 | 0.00 | 0.15 | 0.00 | 82 | 1016.2 |
| 20260503054555 | 2 | 0 | 0.0 | 0.0 | 0.00 | 0.15 | 0.00 | 81 | 1016.2 |
| 20260503053045 | 2 | 0 | 0.0 | 0.0 | 0.00 | 0.15 | 0.00 | 80 | 1016.2 |
| 20260503051543 | 3 | 0 | 0.0 | 0.0 | 0.00 | 0.15 | 0.00 | 79 | 1016.3 |
| 20260503050043 | 3 | 0 | 0.0 | 0.0 | 0.00 | 0.15 | 0.00 | 78 | 1016.4 |
| 20260503044545 | 3 | 0 | 0.0 | 0.0 | 0.00 | 0.20 | 0.00 | 77 | 1016.5 |
| 20260503043050 | 3 | 0 | 0.0 | 0.0 | 0.00 | 0.20 | 0.00 | 76 | 1016.4 |
| 20260503041545 | 4 | 0 | 0.0 | 0.0 | 0.00 | 0.20 | 0.00 | 76 | 1016.5 |
| 20260503040055 | 4 | 0 | 0.0 | 0.0 | 0.00 | 0.20 | 0.00 | 75 | 1016.5 |
| 20260503034547 | 5 | 0 | 0.0 | 0.0 | 0.00 | 0.38 | 0.20 | 75 | 1016.5 |
| 20260503033040 | 5 | 0 | 0.0 | 0.0 | 0.00 | 0.38 | 0.20 | 75 | 1016.6 |
| 20260503031543 | 5 | 0 | 0.0 | 0.0 | 0.00 | 0.38 | 0.20 | 74 | 1016.6 |
| 20260503030045 | 5 | 0 | 0.0 | 0.0 | 0.00 | 0.38 | 0.20 | 72 | 1016.7 |
| 20260503024546 | 5 | 0 | 0.0 | 0.0 | 0.00 | 0.38 | 0.20 | 72 | 1016.8 |
| 20260503023047 | 5 | 0 | 0.0 | 1.6 | 0.00 | 0.38 | 0.20 | 71 | 1016.8 |
| 20260503021551 | 5 | 0 | 0.0 | 0.0 | 0.00 | 0.38 | 0.20 | 71 | 1016.8 |
| 20260503020051 | 5 | 0 | 0.0 | 0.0 | 0.00 | 0.38 | 0.20 | 70 | 1016.8 |
| 20260503014546 | 5 | 0 | 0.0 | 0.0 | 0.00 | 0.38 | 0.20 | 70 | 1016.8 |
| 20260503013044 | 5 | 0 | 0.0 | 0.0 | 0.00 | 0.38 | 0.20 | 70 | 1016.8 |
| 20260503011540 | 6 | 0 | 0.0 | 0.0 | 0.00 | 0.38 | 0.20 | 69 | 1016.7 |
| 20260503010043 | 6 | 0 | 0.0 | 0.0 | 0.00 | 0.38 | 0.20 | 65 | 1016.7 |
| 20260503004556 | 6 | 0 | 0.0 | 0.0 | 0.00 | 0.38 | 0.20 | 62 | 1016.6 |
| 20260503003101 | 6 | 0 | 0.0 | 0.0 | 0.00 | 0.38 | 0.20 | 59 | 1016.5 |
| 20260503001626 | 6 | 0 | 0.0 | 0.0 | 0.00 | 0.38 | 0.20 | 57 | 1016.6 |
| 20260503000059 | 6 | 0 | 0.0 | 0.0 | 0.00 | 0.38 | 0.20 | 57 | 1016.5 |
| 20260502234543 | 6 | 0 | 0.0 | 1.6 | 0.00 | 0.38 | 0.20 | 56 | 1016.6 |
| 20260502233044 | 7 | 0 | 0.0 | 3.2 | 0.00 | 0.38 | 0.20 | 56 | 1016.4 |
| 20260502231544 | 7 | 0 | 0.0 | 3.2 | 0.00 | 0.38 | 0.20 | 55 | 1016.5 |
| 20260502230045 | 6 | 0 | 0.0 | 3.2 | 0.00 | 0.38 | 0.20 | 54 | 1016.5 |